Miscellaneous Hydrologic Data Report
Issued by NWS (Baltimore/Washington) Sterling, VA
1 of 51 available versions  First Miscellaneous Hydrologic Data Report Previous Miscellaneous Hydrologic Data Report  Print this page Close this Window


000
ASUS41 KLWX 281710
RWRLWX

REGIONAL WEATHER ROUNDUP
NATIONAL WEATHER SERVICE BALTIMORE MD/WASHINGTON DC
1200 PM EST FRI NOV 28 2014

Note: "FAIR" indicates few or no clouds below 12,000 feet
with no significant weather and/or obstructions to visibility.
 TC=TEMPERATURE CELSIUS

 * =Non NWS site. Station does not report precipitation (e.g. rain,
    snow, etc.), thunder, or fog.

DCZ001-MDZ009-015-VAZ040>042-051-053>054-281800-
WASHINGTON METRO

CITY           SKY/WX    TMP DP  RH WIND       PRES   REMARKS
WASHINGTON NAT PTSUNNY   41  19  41 NW10      30.30F
DULLES         PTSUNNY   36  20  52 NW15G24   30.29F WCI  27
ANDREWS AFB    MOSUNNY   37  23  56 NW13      30.27F WCI  29
FT BELVOIR     PTSUNNY   40  19  43 NW14      30.30F
QUANTICO       MOSUNNY   40  18  41 N15G24    30.31F
COLLEGE PARK*  PTSUNNY   37  21  52 NW10G16   30.29F
LEESBURG*      PTSUNNY   36  27  69 NW12      30.30F WCI  27
GAITHERSBURG*  PTSUNNY   36  21  55 W13       30.31F WCI  27

$$

MDZ006>007-011-014-281800-
BALTIMORE METRO

CITY           SKY/WX    TMP DP  RH WIND       PRES   REMARKS
BWI AIRPORT    MOSUNNY   37  17  44 NW14      30.27F WCI  28
MD SCIENCE CTR   N/A     37  15  40 MISG      30.28F
MARTIN STATE   PTSUNNY   37  21  52 W17G23    30.28  WCI  28
ANNAPOLIS      MOSUNNY   39  19  44 NW16      30.26F
FORT MEADE*    MOSUNNY   37  19  48 NW13G22   30.30F

$$

MDZ012-015-019>023-281800-
MARYLAND EASTERN SHORE

CITY           SKY/WX    TMP DP  RH WIND       PRES   REMARKS
OCEAN CITY     MOSUNNY   41  22  46 NW14      30.23F
SALISBURY      MOSUNNY   42  22  44 NW14G22   30.24F
BAY BRIDGE AP*   N/A     39  19  45 NW13G18   30.27F
CAMBRIDGE*     MOSUNNY   41  23  48 NW16G24   30.25F
EASTON*        MOSUNNY   41  23  48 N17G24    30.30F

$$

MDZ017>025-281800-
SOUTHERN MARYLAND

CITY           SKY/WX    TMP DP  RH WIND       PRES   REMARKS
PATUXENT RIVER MOSUNNY   41  21  44 NW16      30.27F
ST INIGOES     MOSUNNY   41  20  43 NW14      30.27F
LEONARDTOWN*   PTSUNNY   41  21  45 NW7       30.28F

$$

MDZ003>005-281800-
NORTH CENTRAL MARYLAND

CITY           SKY/WX    TMP DP  RH WIND       PRES   REMARKS
FREDERICK*     PTSUNNY   37  16  41 NW12G20   30.32F
HAGERSTOWN APT CLOUDY    34  17  50 NW17      30.27F WCI  23
WESTMINSTER*   PTSUNNY   34  16  47 NW8G17    30.24F WCI  27

$$

MDZ501>502-281800-
WESTERN MARYLAND

CITY           SKY/WX    TMP DP  RH WIND       PRES   REMARKS
OAKLAND*       FOG       21 N/A N/A NW6       30.17F VSB 3/4
CUMBERLAND*    PTSUNNY   32  18  55 NW7       30.34F

$$

VAZ025>031-281800-
SHENANDOAH VALLEY

CITY           SKY/WX    TMP DP  RH WIND       PRES   REMARKS
WINCHESTER*    CLOUDY    34  18  51 W16       30.28F WCI  23
FRONT ROYAL*   CLOUDY    34  18  51 NW7       30.28F
LURAY*         FAIR      36  21  55 W8        30.29F
NEW MARKET*    CLOUDY    33  17  52 NW5       30.30S
STAUNTON*      SUNNY     33  15  46 W5        30.30F
WAYNESBORO*    FAIR      31  14  50 SW3       30.28F

$$

WVZ021-048>050-054>055-281800-
EASTERN WEST VIRGINIA PANHANDLE

CITY           SKY/WX    TMP DP  RH WIND       PRES   REMARKS
MARTINSBURG    PTSUNNY   35  15  44 W9        30.29F WCI  28
PETERSBURG*    CLOUDY    33  15  48 W10G18    30.32S WCI  24

$$

VAZ036>039-050-281800-
CENTRAL FOOTHILLS

CITY           SKY/WX    TMP DP  RH WIND       PRES   REMARKS
CHARLOTTESVILL SUNNY     37  16  42 W8        30.30F
CULPEPER*      MOSUNNY   37  18  44 NW6       30.31S
ORANGE*        MOSUNNY   41  19  42 SW8       30.32F
GORDONSVILLE*  PTSUNNY   38  17  42 NW7       30.30F
WARRENTON*     PTSUNNY   40  25  55 NW6       30.29F

$$

VAZ055>057-281800-
NORTH AND CENTRAL PIEDMONT

CITY           SKY/WX    TMP DP  RH WIND       PRES   REMARKS
FREDERICKSBRG* MOSUNNY   40  19  42 NW8G17    30.30F
STAFFORD*      SUNNY     38  17  42 W7        30.34F

$$

NCZ024-NYZ072-PAZ021-071-VAZ022-071-281800-
OTHER REGIONAL OBSERVATIONS

CITY           SKY/WX    TMP DP  RH WIND       PRES   REMARKS
NEW YORK CITY  PTSUNNY   36  18  48 NW9       30.18F WCI  29
PHILADELPHIA   PTSUNNY   37  17  44 NW20G25   30.23F WCI  27
PITTSBURGH     PTSUNNY   27  16  63 NW13      30.30F WCI  16
ROANOKE        MOSUNNY   35  16  45 N6        30.33F
RICHMOND       MOSUNNY   43  20  39 NW15G23   30.30F
RALEIGH        MOSUNNY   41  19  41 VRB6      30.33F

$$

ANZ530>537-281800-
MARINE OBSERVATIONS

STATION/POSITION TIME  TEMP    WIND        PRES
                       AIR SEA DIR/SP/G
                 (UTC) (F)     (DEG/KT/KT) (MB)
THOMAS PT LIGHT  1700   37 45  300/ 14/ 16 1025.8F
BALT KEY BRIDGE  1700   36     300/ 18/ 21 1025.1F
COVE POINT       1700   37     350/ 17/ 19 1025.0F
LEWISETTA        1700   39 45  340/ 11/ 20 1025.0F
SOLOMONS ISLAND  1700      47                N/A
PINEY POINT      1700          330/ 17/ 20   N/A

$$

Close this window


The National Weather Service prepares its forecasts and other services in collaboration with agencies like the US Geological Survey, US Bureau of Reclamation, US Army Corps of Engineers, Natural Resource Conservation Service, National Park Service, ALERT Users Group, Bureau of Indian Affairs, and many state and local emergency managers across the country. For details, please click here.

National Weather Service
(Baltimore/Washington) Sterling Weather Forecast Office
43858 Weather Service Rd.
Sterling, VA 20166
(703) 996-2200
Page last modified: 28-Nov-2014 5:10 PM
Disclaimer
Credits
Glossary
Privacy Policy
About Us
Career Opportunities